• MPC Preparation (Info)

  • MPEC 2023-K76 : 2023 JC6

    The following Minor Planet Electronic Circular may be linked-to from your own Web pages, but must not otherwise be redistributed electronically.

    A form allowing access to any MPEC is at the bottom of this page.


    Read MPEC 2023-K75 Read MPEC 2023-K77


    M.P.E.C. 2023-K76                                  Issued 2023 May 21, 13:50 UT
    
         The Minor Planet Electronic Circulars contain information on unusual
             minor planets, routine data on comets and natural satellites,
             and occasional editorial announcements.  They are published
        on behalf of Division F of the International Astronomical Union by the
              Minor Planet Center, Smithsonian Astrophysical Observatory,
                              Cambridge, MA 02138, U.S.A.
    			  
                 Prepared using the Tamkin Foundation Computer Network
    
                                  MPC@CFA.HARVARD.EDU
                URL https://www.minorplanetcenter.net/    ISSN 1523-6714
    
                                    2023 JC6                                 
    
    
    Observations:
         K23J06C* C2023 05 13.43274215 25 54.250-24 38 20.36         21.67wXEK076F51
         K23J06C  C2023 05 13.44501315 25 51.976-24 38 03.32         22.05wXEK076F51
         K23J06C  C2023 05 13.45727915 25 49.710-24 37 46.58         21.97wXEK076F51
         K23J06C KC2023 05 13.55416615 25 31.926-24 35 32.32         21.44GVEK076F51
         K23J06C |C2023 05 15.19977 15 20 52.48 -23 58 39.8          21.6 GVEK076807
         K23J06C |C2023 05 15.21086 15 20 50.63 -23 58 25.4          21.7 GVEK076807
         K23J06C |C2023 05 15.22196 15 20 48.73 -23 58 10.9          21.7 GVEK076807
         K23J06C KC2023 05 21.25099215 06 34.546-21 57 59.90         22.40GVEK076V06
         K23J06C KC2023 05 21.25813715 06 33.656-21 57 51.88         22.40GVEK076V06
         K23J06C KC2023 05 21.26528315 06 32.760-21 57 44.28         22.28GVEK076V06
         K23J06C KC2023 05 21.27242915 06 31.871-21 57 35.86         22.13GVEK076V06
    
    Observer details:
    807 Cerro Tololo Observatory, La Serena.  Observers T. Linder, R. Holmes, L.
        Horn.  1.00-m f/10.0 astrograph + CCD.
    F51 Pan-STARRS 1, Haleakala.  Observers J. Bulger, T. Lowe, A. Schultz, I.
        Smith, K. Chambers.  Measurers K. Chambers, S. Chastel, T. de Boer, J.
        Fairlamb, H. Gao, M. Huber, C.-C. Lin, E. Magnier, Y. Ramanjooloo, R.
        Wainscoat, R. Weryk.  1.8-m Ritchey-Chretien + CCD.
    V06 Catalina Sky Survey-Kuiper.  Observer J. B. Fazekas.  Measurers E. J.
        Christensen, D. Fay, J. B. Fazekas, D. C. Fuls, A. R. Gibbs, A. D. Grauer,
        H. Groeller, J. K. Hogan, R. A. Kowalski, S. M. Larson, G. J. Leonard, D.
        Rankin, R. L. Seaman, A. Serrano, F. C. Shelly, K. W. Wierzchos.  1.55-m
        reflector + 1K CCD.
    
    Orbital elements:
    2023 JC6                                                 Earth MOID = 0.0802 AU
    Epoch 2023 Feb. 25.0 TT = JDT 2460000.5                 Bell                    
    M   2.73437              (2000.0)            P               Q                  
    n   0.28357004     Peri.  220.00121     -0.33403256     -0.93564270             
    a   2.2945410      Node   249.78430     +0.89287178     -0.27535043             
    e   0.7842751      Incl.    6.97746     +0.30199708     -0.22080509             
    P   3.48           H   21.91          G   0.15           U   9                  
    Residuals in seconds of arc
    230513 F51  0.3+  0.2-    230515 807  0.2-  0.1+    230521 V06  0.0   0.0
    230513 F51  0.2+  0.0     230515 807  0.2+  0.0     230521 V06  0.0   0.1-
    230513 F51  0.2+  0.1-    230515 807  0.0   0.1-    230521 V06  0.2+  0.5+
    230513 F51  0.0   0.0     230521 V06  0.2-  0.3-
    
    Ephemeris:
    2023 JC6                 a,e,i = 2.29, 0.78, 7                   q = 0.4950
    Date    TT    R. A. (2000) Decl.     Delta      r    Elong.  Phase     V
    2023 04 21    17 11 56.4 -34 08 31   0.3653  1.2689   129.5    37.6    21.8
    ...
    2023 05 06    15 51 55.0 -27 41 39   0.4688  1.4611   161.7    12.5    21.8
    ...
    2023 05 14    15 24 14.8 -24 25 18   0.5500  1.5585   174.0     3.9    21.9
    ...
    2023 05 20    15 09 11.2 -22 20 58   0.6220  1.6293   171.3     5.4    22.4
    2023 05 21    15 07 05.1 -22 02 23   0.6349  1.6410   170.1     6.1    22.5
    2023 05 22    15 05 05.6 -21 44 26   0.6480  1.6526   168.8     6.8    22.6
    ...
    2023 05 28    14 55 11.9 -20 09 21   0.7314  1.7210   160.9    11.1    23.1
    ...
    2023 06 05    14 46 37.9 -18 33 46   0.8542  1.8095   151.0    15.8    23.7
    ...
    2023 06 20    14 40 43.7 -16 50 04   1.1142  1.9675   134.9    21.5    24.7
    
    M. P. C. Staff               (C) Copyright 2023 MPC           M.P.E.C. 2023-K76
    


    Read MPEC 2023-K75 Read MPEC 2023-K77


    MPEC number:

    Enter an MPEC number in one of the following forms:

    • 1997-B01 (the full form)
    • J97B01 (the packed version of the full form)
    • B01 (the abbreviated form)